Location: Namasale
(1.5000°N, 32.6167°E)
Time: 17:43:31
(UTC+00:00)

Courier 1B - Pass Details

Date: 22 April 2021
Orbit: 962 x 1209 km, 28.3° (Epoch: 18 May)

Event Time Altitude Azimuth Distance (km) Brightness Sun altitude
Rises 02:17:45 0° 210° (SSW) 4,110 - -21.7°
Exits shadow 02:20:24 - 197° (SSW) 3,541 10.1 -21.1°
Reaches altitude 10° 02:23:05 10° 181° (S) 3,129 10.0 -20.4°
Maximum altitude 02:25:49 12° 160° (SSE) 2,959 10.1 -19.7°
Drops below altitude 10° 02:28:33 10° 139° (SE) 3,092 10.5 -19.1°
Sets 02:33:41 0° 109° (ESE) 4,002 11.7 -17.8°
